Location: D�nning
(49.2479°N, 12.8491°E)
Time: 06:09:34
(UTC+00:00)

SJ-11-01 - Pass Details

Date: 18 September 2020
Orbit: 684 x 701 km, 98.0° (Epoch: 22 October)

Event Time Altitude Azimuth Distance (km) Brightness Sun altitude
Rises 18:03:33 0° 165° (SSE) 3,067 7.3 -8.8°
Reaches altitude 10° 18:05:47 10° 166° (SSE) 2,152 6.6 -9.1°
Maximum altitude 18:10:31 86° 254° (WSW) 703 4.4 -9.9°
Drops below altitude 10° 18:15:15 10° 346° (NNW) 2,158 7.2 -10.6°
Sets 18:17:30 0° 346° (NNW) 3,076 8.1 -11.0°
